This is the latest recevied weather packets stored in our database for station/object OE6PWE-13. If no packets are shown the sender has not sent any weather packets the latest 10 day(s).
| Time | Temp. | Humidity | Pressure | Rain* | Wind** | Luminosity | Snow |
|---|---|---|---|---|---|---|---|
| 1788108311 | 28.89° C | 51% | 1013 hPa | 0 mm | - | - | - |
| 1788107412 | 29.44° C | 51% | 1013 hPa | 0 mm | - | - | - |
| 1788106522 | 30° C | 50% | 1013 hPa | 0 mm | - | - | - |
| 1788105612 | 31.11° C | 47% | 1013 hPa | 0 mm | - | - | - |
| 1788104712 | 30.56° C | 46% | 1013 hPa | 0 mm | - | - | - |
| 1788103811 | 30.56° C | 48% | 1013 hPa | 0 mm | - | - | - |
| 1788102912 | 31.11° C | 46% | 1013 hPa | 0 mm | - | - | - |
| 1788102012 | 30.56° C | 45% | 1013 hPa | 0 mm | - | - | - |
| 1788101111 | 30.56° C | 46% | 1013 hPa | 0 mm | - | - | - |
| 1788100212 | 31.11° C | 44% | 1014 hPa | 0 mm | - | - | - |
| 1788099312 | 31.67° C | 45% | 1014 hPa | 0 mm | - | - | - |
| 1788098412 | 30.56° C | 43% | 1014 hPa | 0 mm | - | - | - |
| 1788097511 | 31.11° C | 46% | 1014 hPa | 0 mm | - | - | - |
| 1788096612 | 30.56° C | 44% | 1014 hPa | 0 mm | - | - | - |
| 1788095712 | 30.56° C | 45% | 1014 hPa | 0 mm | - | - | - |
| 1788094811 | 30.56° C | 43% | 1014 hPa | 0 mm | - | - | - |
| 1788093912 | 30.56° C | 46% | 1014 hPa | 0 mm | - | - | - |
| 1788093012 | 30.56° C | 46% | 1014 hPa | 0 mm | - | - | - |
| 1788092112 | 31.11° C | 45% | 1014 hPa | 0 mm | - | - | - |
| 1788091211 | 30.56° C | 45% | 1015 hPa | 0 mm | - | - | - |
| 1788090312 | 29.44° C | 46% | 1015 hPa | 0 mm | - | - | - |
| 1788089412 | 29.44° C | 46% | 1015 hPa | 0 mm | - | - | - |
| 1788088512 | 29.44° C | 48% | 1015 hPa | 0 mm | - | - | - |
| 1788087612 | 29.44° C | 49% | 1015 hPa | 0 mm | - | - | - |
| 1788086712 | 28.33° C | 47% | 1015 hPa | 0 mm | - | - | - |
* Rain latest hour (hover to see other rain measurements)
** Current wind speed in m/s (hover to see current wind gust speed)